Miscellaneous Local Product
Issued by NWS North Platte, NE

Home | Current Version | Previous Version | Graphics & Text | Print | Product List | Glossary On
Versions: 1 2 3 4 5 6 7 8 9 10 11 12 13 14 15 16 17 18 19 20 21 22 23 24 25 26 27 28 29 30 31 32 33 34 35 36 37 38 39 40 41 42 43 44 45 46 47 48 49 50
000
AXUS43 KLBF 050910
MISLBF


WESTERN AND NORTH CENTRAL NEBRASKA HOURLY WEATHER ROUNDUP
NATIONAL WEATHER SERVICE NORTH PLATTE NE
400 AM CDT WED AUG 05 2015

***STATIONS NOT REPORTING VARIABLES SUCH AS SKY/WEATHER OR
PRESSURE ARE PROVIDED BY THE NEBRASKA DEPARTMENT OF
ROADS...RAWS...AND APRS NETWORKS...AND ARE NOT UNDER
NATIONAL WEATHER SERVICE QUALITY CONTROL***

...OBSERVATIONS IN AND NEAR THE EASTERN PANHANDLE OF NEBRASKA...

CITY           SKY/WX    TMP DP  RH WIND       PRES   REMARKS
PINE RIDGE     MOCLDY    65  59  81 SW8       30.02F
CHADRON        CLEAR     60  58  92 CALM      30.02S
ALLIANCE       FOG       57  56  96 CALM      30.06S VSB 3/4
SIDNEY         CLEAR     52  52 100 SW5       30.10S FOG
BIG SPRINGS      N/A     58  57  96 CALM        N/A
$$

...OBSERVATIONS IN NORTH CENTRAL NEBRASKA...

CITY           SKY/WX    TMP DP  RH WIND       PRES   REMARKS
THEDFORD       MOCLDY    60  59  98 CALM      30.04S FOG
AINSWORTH      MOCLDY    65  65  99 CALM      30.03S
O`NEILL        CLOUDY    66  65  96 SE5       30.01F
ORD            MOCLDY    63  62  97 CALM      29.99F
BROKEN BOW     FOG       65  64  97 SE5       30.01F VSB 1/4
SPRINGVIEW       N/A     65  63  93 CALM        N/A
CHAMBERS         N/A     65  64  95 CALM        N/A
EWING            N/A     66  64  94 S3          N/A
$$

...OBSERVATIONS IN SOUTHWEST NEBRASKA AND FAR NORTHEAST COLORADO...

CITY           SKY/WX    TMP DP  RH WIND       PRES   REMARKS
WRAY           FOG      N/A N/A N/A CALM      30.06S VSB 1/2
HOLYOKE        FOG       61  59  94 CALM      30.06S VSB<1/4
IMPERIAL       CLEAR     60  58  92 NW3       30.04S
OGALLALA       CLEAR     59  59  99 CALM      30.04S FOG
NORTH PLATTE   CLOUDY    59  58  96 E5        30.03S FOG
MCCOOK         CLEAR     59  58  96 CALM      30.01R FOG
LEXINGTON      CLOUDY    65  64  95 CALM      30.01S FOG
PAXTON           N/A     60  58  94 CALM        N/A
BRADY            N/A     61  60  95 CALM        N/A
CALLAWAY         N/A     65  65  99 S5          N/A
$$

...NORTH PLATTE AREA...

CITY           SKY/WX    TMP DP  RH WIND       PRES   REMARKS
AIRPORT        CLOUDY    59  58  96 E5        30.03S FOG
DOWNTOWN         N/A     61  61 100 CALM        N/A
SANDRIDGE        N/A     61  60  97 CALM        N/A
HILLCREST        N/A     61  61  99 CALM        N/A
$$

...SOME WEATHER OBSERVATIONS FROM AROUND THE REGION...

CITY           SKY/WX    TMP DP  RH WIND       PRES   REMARKS
DENVER         CLEAR     62  51  67 SW8       30.15S
LARAMIE        CLEAR     48  38  68 S7        30.26F
CHEYENNE       CLEAR     56  52  86 VRB3      30.20S
SCOTTSBLUFF    FOG       61  60  97 CALM      30.07R VSB 1/4
RAPID CITY     CLOUDY    66  59  78 CALM      29.99F
PIERRE         MOCLDY    66  63  90 E7        29.98R
WINNER         FAIR      67  63  87 SE7       30.00R
SIOUX FALLS    MOCLDY    62  57  83 NE6       30.02S
OMAHA          MOCLDY    67  66  97 SE10      29.98F
GRAND ISLAND   CLOUDY    65  63  93 NE3       30.00R
KANSAS CITY    LGT RAIN  70  69  97 SE7       29.98F
WICHITA        MOCLDY    73  69  87 SE10      29.90F
HAYS           CLOUDY    73  64  73 E3        29.93F
LIBERAL        CLEAR     72  64  78 SW9       29.95
GOODLAND       FOG       58  57  97 NW6       30.04F VSB 1/2
$$



USA.gov is the U.S. government's official web portal to all federal, state and local government web resources and services.